This demonstration page uses our WeatherBlox Daily Observations layout. Learn more.

Hourly Observations for October 2, 2019

Temp ( °F °C ) Dew Point ( °F °C ) Humidity (%) Winds ( mph kmh ) Pressure ( in mb ) Visibility ( mi km ) Precip ( " mm )
12:54 am 00:54 Cloudy 53 11.7 51 10.6 93 93 NNW 12 19 29.94 1014 9 14.484096 0 0
1:54 am 01:54 Cloudy 53 11.7 51 10.6 93 93 N 13 20 29.94 1014 10 16.09344 0 0
2:54 am 02:54 Cloudy 53 11.7 50 10 89 89 N 14 22 29.97 1015 10 16.09344 0 0
3:54 am 03:54 Cloudy 53 11.7 50 10 89 89 NNE 9 15 29.97 1015 10 16.09344 0 0
4:20 am 04:20 Cloudy 53 11.7 50 10 89 89 N 12 19 29.97 1015 7 11.265408 0 0
4:54 am 04:54 Cloudy 53 11.7 50 10 89 89 N 7 11 29.97 1015 10 16.09344 0.001 0.001
5:54 am 05:54 Cloudy 52 11.1 50 10 93 93 NNE 9 15 29.97 1015 10 16.09344 0 0
6:14 am 06:14 Cloudy 52 11.1 50 10 93 93 NE 10 17 29.97 1015 9 14.484096 0.001 0.001
6:33 am 06:33 Cloudy 52 11.1 50 10 93 93 NE 12 19 29.97 1015 7 11.265408 0.001 0.001
6:46 am 06:46 Cloudy 52 11.1 50 10 93 93 NNE 8 13 29.97 1015 9 14.484096 0.001 0.001
6:54 am 06:54 Cloudy 52 11.1 50 10 93 93 NNE 8 13 29.97 1015 10 16.09344 0.001 0.001
7:54 am 07:54 Cloudy with Light Rain 53 11.7 50 10 89 89 NE 12 19 29.94 1014 10 16.09344 0.001 0.001
8:24 am 08:24 Cloudy with Light Rain 52 11.1 50 10 93 93 NNE 9 15 29.97 1015 5 8.04672 0.001 0.001
8:54 am 08:54 Cloudy with Light Rain 53 11.7 50 10 89 89 NNE 9 15 29.97 1015 9 14.484096 0.001 0.001
9:30 am 09:30 Cloudy with Light Rain 53 11.7 51 10.6 93 93 N 9 15 30 1016 2 3.218688 0.01 0.254
9:54 am 09:54 Cloudy with Light Rain 53 11.7 51 10.6 93 93 N 9 15 29.97 1015 2.5 4.02336 0.02 0.508
10:37 am 10:37 Cloudy with Light Rain 53 11.7 51 10.6 93 93 NNE 9 15 29.97 1015 6 9.656064 0.02 0.508
10:54 am 10:54 Cloudy with Rain 54 12.2 51 10.6 90 90 NNE 7 11 29.97 1015 4 6.437376 0.03 0.762
11:54 am 11:54 Cloudy with Light Rain 54 12.2 51 10.6 90 90 N 7 11 29.97 1015 10 16.09344 0.06 1.524
12:08 pm 12:08 Cloudy with Light Rain 54 12.2 51 10.6 90 90 N 9 15 30 1016 9 14.484096 0.001 0.001
12:44 pm 12:44 Cloudy 54 12.2 51 10.6 90 90 N 8 13 29.97 1015 10 16.09344 0.001 0.001
12:54 pm 12:54 Cloudy 54 12.2 51 10.6 90 90 NNE 7 11 29.97 1015 10 16.09344 0.001 0.001
1:54 pm 13:54 Cloudy 55 12.8 51 10.6 87 87 NNW 9 15 29.94 1014 9 14.484096 0 0
2:40 pm 14:40 Cloudy 56 13.3 52 11.1 87 87 N 9 15 29.97 1015 7 11.265408 0.001 0.001
2:54 pm 14:54 Cloudy 56 13.3 52 11.1 87 87 VRB 5 7 29.94 1014 10 16.09344 0.001 0.001
3:54 pm 15:54 Cloudy with Light Rain 56 13.3 51 10.6 84 84 NW 9 15 29.97 1015 6 9.656064 0.001 0.001
4:31 pm 16:31 Cloudy 56 13.3 52 11.1 87 87 N 8 13 29.97 1015 10 16.09344 0.001 0.001
4:46 pm 16:46 Cloudy 56 13.3 51 10.6 84 84 NNW 6 9 30 1016 10 16.09344 0.001 0.001
4:54 pm 16:54 Cloudy with Mist and Fog 56 13.3 52 11.1 87 87 NW 7 11 29.97 1015 5 8.04672 0.001 0.001
5:26 pm 17:26 Cloudy 57 13.9 51 10.6 81 81 NW 9 15 29.97 1015 10 16.09344 0 0
5:38 pm 17:38 Cloudy 56 13.3 51 10.6 84 84 NNW 9 15 30 1016 10 16.09344 0 0
5:54 pm 17:54 Cloudy 56 13.3 51 10.6 84 84 NW 8 13 30 1016 10 16.09344 0 0
6:16 pm 18:16 Cloudy 56 13.3 51 10.6 84 84 NW 9 15 30 1016 10 16.09344 0.001 0.001
6:31 pm 18:31 Cloudy 55 12.8 50 10 83 83 NW 12 19 30 1016 9 14.484096 0.001 0.001
6:54 pm 18:54 Cloudy 54 12.2 50 10 87 87 NW 13 20 30 1016 10 16.09344 0.001 0.001
7:37 pm 19:37 Cloudy 54 12.2 50 10 87 87 NW 9 15 30.03 1017 10 16.09344 0 0
7:54 pm 19:54 Cloudy 54 12.2 50 10 87 87 NW 10 17 30.03 1017 10 16.09344 0 0
8:54 pm 20:54 Cloudy 54 12.2 48 8.9 80 80 NNW 12 19 30.06 1018 10 16.09344 0 0
9:54 pm 21:54 Cloudy 53 11.7 47 8.3 80 80 NNW 17 28 30.09 1019 10 16.09344 0 0
10:25 pm 22:25 Cloudy 52 11.1 45 7.2 77 77 NW 17 28 30.15 1021 10 16.09344 0 0
10:54 pm 22:54 Cloudy 52 11.1 43 6.1 72 72 NNW 15 24 30.12 1020 10 16.09344 0 0
11:54 pm 23:54 Cloudy 51 10.6 43 6.1 74 74 NNW 13 20 30.12 1020 10 16.09344 0 0

Powered by AerisWeather